Leonardo Aguirre

Recruteur - Gimnasia y Tiro
20 Janv 2028
Jeudi
Processus

Personnalité

Adaptabilité (3) Ambition (1) Controverse (10) Loyauté (8) Pression (11) Professionnalisme (19) Sportivité (13) Tempérament (14)

Profil

Style d'entraînement Démocratique
Diplôme Continental Pro
Détermination 2
Gestion des joueurs 1
Motivation 7
Discipline 4
Satisfaction professionnelle
36%
Fatigue
0%
Rôle Recruteur
Salaire 8.4K p/s
Contrat 14.03.2030

Performance

Comportement Bon
Efficacité de l'entraînement
12%
Développement des joueurs
35%
Prévention des blessures
35%
Mise en place tactique
35%

Événements récents

En formation continue maintenant
A participé à une réunion de recrutement maintenant
A participé à une réunion de recrutement 7j
En formation continue 7j
En formation continue 7j
A participé à une réunion de recrutement 14j
A participé à une réunion de recrutement 21j
A participé à une réunion de recrutement 28j

Suivi en cours

133
Joueur Club Statut Capacité Confiance Observé Dernière observation Dernier vote
Santiago Rodríguez Gimnasia y Esgrima Actif 122 / 126 40% 2 29.11.2026 -
Elías Báez Atlanta United FC Actif 121 / 120 40% 1 29.11.2026 -
Facundo Melillán Güemes Actif 110 / 111 40% 1 27.11.2026 -
Nicolás Fernández Maipú Actif 101 / 96 40% 1 27.11.2026 -
Juan Alfredo Arrieta Trujillanos Actif 82 / 102 40% 2 26.11.2026 -
Joaquín Enrico San Telmo Actif 112 / 88 40% 2 25.11.2026 -
Nahuel Galardi Maipú Actif 101 / 108 40% 1 21.11.2026 -
Lautaro Petruchi Gimnasia y Esgrima Actif 120 / 102 40% 1 20.11.2026 -
Mauro Valiente Estudiantes Actif 130 / 96 40% 1 20.11.2026 -
Jeremy Ebobisse Los Angeles Football Club Actif 123 / 96 40% 1 19.11.2026 -
Carlos Faya Deportivo La Guaira Actif 93 / 108 40% 1 17.11.2026 -
Agustín Pérez Deportivo Tachira Actif 94 / 115 40% 1 16.11.2026 -
Ulises Yegros Ferro Carril Oeste Actif 112 / 110 40% 1 16.11.2026 -
Gino Barbieri Almagro Actif 127 / 125 40% 2 15.11.2026 -
Francisco Salerno Defensores Unidos Actif 121 / 105 40% 2 15.11.2026 -
Marber Suárez Zulia Actif 86 / 102 40% 1 14.11.2026 -
Nəriman Axundzadə Columbus Crew Actif 105 / 131 40% 1 14.11.2026 -
Valentín Serrano Arsenal Actif 105 / 122 40% 1 13.11.2026 -
Fernando Miranda Colegiales Actif 123 / 106 40% 1 13.11.2026 -
Gaspar Duarte Rosario Central Actif 104 / 120 40% 1 12.11.2026 -
Diego Capdevila Cerro Actif 104 / 79 40% 2 11.11.2026 -
Miguel Acosta Argentinos Juniors Actif 94 / 99 40% 1 11.11.2026 -
Siro Rosané Estudiantes Actif 127 / 134 40% 1 09.11.2026 -
Ignacio Rodríguez Racing Club Actif 122 / 127 40% 1 09.11.2026 -
Yvo Calleros Madryn Actif 128 / 107 40% 1 08.11.2026 -
Germán Guiffrey Gimnasia y Esgrima Actif 127 / 103 40% 1 06.11.2026 -
Matías Pérez Racing Club Actif 121 / 135 40% 1 04.11.2026 -
Mauricio Márquez Caracas Actif 96 / 96 40% 1 04.11.2026 -
Matías Machado Racing Actif 112 / 127 40% 1 03.11.2026 -
Darwin Machis Atletico Venezuela Actif 66 / 71 40% 1 03.11.2026 -
Moisés Gallo Zulia Actif 105 / 88 40% 1 02.11.2026 -
Javier Bravo Mineros de Guayana Actif 73 / 86 40% 2 01.11.2026 -
Rafael Sánchez Aragua Actif 91 / 95 40% 1 01.11.2026 -
Walter Juárez Güemes Actif 116 / 127 40% 1 01.11.2026 -
Victor Moreno Llaneros Actif 86 / 116 40% 1 01.11.2026 -
Piero Magallanes Sport Huancayo Actif 111 / 82 40% 1 31.10.2026 -
Santiago Sala Güemes Actif 110 / 116 40% 1 31.10.2026 -
Esteban Glellel Quilmes Actif 107 / 114 40% 4 29.10.2026 -
Jeferson Nolasco Cesar Vallejo Actif 104 / 108 40% 1 25.10.2026 -
Gali Balanta Deportes Tolima Actif 105 / 99 40% 2 24.10.2026 -
Enzo Vázquez Central Norte Actif 105 / 120 40% 2 24.10.2026 -
Francisco Borda Central Norte Actif 107 / 85 40% 1 21.10.2026 -
Luis Iberico Sporting Cristal Actif 105 / 113 40% 1 20.10.2026 -
Ronny Maza Aragua Actif 108 / 87 40% 2 19.10.2026 -
Ezequiel Almirón Estudiantes Actif 115 / 122 40% 1 18.10.2026 -
Juan Romero Olimpia Actif 113 / 118 40% 3 17.10.2026 -
Darío Rostagno Estudiantes Actif 123 / 123 40% 1 17.10.2026 -
Lautaro Amadé Defensa y Justicia Actif 127 / 107 40% 1 16.10.2026 -
Gianfranco Chávez Alianza Lima Actif 110 / 122 40% 1 15.10.2026 -
Jonatan Torres Cerro Porteno Actif 127 / 112 40% 2 14.10.2026 -
Nahuel Pezzini Arsenal Actif 113 / 97 40% 1 12.10.2026 -
Maximiliano Ribero Central Norte Actif 130 / 110 40% 1 11.10.2026 -
Juan Mendoza Güemes Actif 118 / 85 40% 1 10.10.2026 -
Marco Miori Alvarado Actif 112 / 95 40% 1 10.10.2026 -
Paolo Reyna Universitario Actif 117 / 107 40% 1 08.10.2026 -
Gustavo Dionisi Guarani Actif 92 / 105 40% 1 05.10.2026 -
Francisco Maidana Gimnasia y Esgrima Actif 116 / 103 40% 1 03.10.2026 -
Gabriel Otero Llaneros Actif 117 / 95 40% 1 03.10.2026 -
Gino Santilli Banfield Actif 96 / 98 40% 1 02.10.2026 -
Nicolás Heiz Maipú Actif 120 / 117 40% 1 01.10.2026 -
Steven Pabón Trujillanos Actif 113 / 107 40% 1 28.09.2026 -
Santiago Kubiszyn Morón Actif 112 / 114 40% 1 28.09.2026 -
Tomás Porra Barracas Central Actif 125 / 101 40% 2 27.09.2026 -
Mauricio Guzmán Tristán Suárez Actif 114 / 107 40% 1 27.09.2026 -
Brayan Moreno Universidad de Chile Actif 116 / 104 40% 2 25.09.2026 -
Jorge Murrugarra Universitario Actif 121 / 111 40% 1 25.09.2026 -
Édier Ocampo Vancouver Whitecaps Actif 121 / 96 40% 1 25.09.2026 -
Matías Samaniego Talleres Actif 90 / 117 40% 1 25.09.2026 -
Junior Paredes Trujillanos Actif 86 / 90 40% 1 24.09.2026 -
Sebastián Cocimano Nueva Chicago Actif 117 / 116 40% 1 24.09.2026 -
Jeremías James Columbus Crew Actif 128 / 125 40% 1 22.09.2026 -
Agustín Dattola Almirante Brown Actif 121 / 109 40% 1 22.09.2026 -
David Agudelo Depor Actif 99 / 106 40% 1 21.09.2026 -
Rômulo Tigres Actif 103 / 129 40% 2 19.09.2026 -
Luis Olivera Defensores Unidos Actif 113 / 121 40% 1 17.09.2026 -
Santiago Cartagena Deportivo Maldonado Actif 118 / 113 40% 1 17.09.2026 -
Hugo Ancajima Universitario Actif 126 / 98 40% 2 16.09.2026 -
Álex Vázquez Racing Actif 100 / 116 40% 1 16.09.2026 -
Diego Castillo Real Cartagena Actif 113 / 112 40% 1 15.09.2026 -
Pablo Fernández Sol de America Actif 87 / 90 40% 1 15.09.2026 -
Maicol Ferreira Danubio Actif 102 / 120 40% 1 14.09.2026 -
Jhonier Blanco Fortaleza CEIF Actif 107 / 108 40% 1 14.09.2026 -
Miguel Silva Carabobo Actif 104 / 92 40% 1 13.09.2026 -
Lucas Pedraza Defensores Unidos Actif 90 / 91 40% 1 12.09.2026 -
Diego Valencia Universidad Catolica Actif 101 / 112 40% 1 11.09.2026 -
Alejandro Samudio Nacional Actif 96 / 91 40% 1 11.09.2026 -
Andrés Gudiño Cruz Azul Actif 121 / 95 40% 1 08.09.2026 -
Cristian Baldovino Atletico Bucaramanga Actif 84 / 93 40% 1 08.09.2026 -
Roameth Romaña Llaneros Actif 92 / 114 40% 2 07.09.2026 -
Emiliano Ancheta Nacional Actif 122 / 132 40% 1 07.09.2026 -
Stiven Vega Millonarios Actif 110 / 129 40% 1 07.09.2026 -
Luis Corredor Estudiantes de Caracas Actif 87 / 108 40% 1 06.09.2026 -
Anthony Vilche Colon Actif 92 / 76 40% 1 04.09.2026 -
Éwil Murillo Santa Fe Actif 130 / 104 40% 1 02.09.2026 -
George Ayine Metropolitanos Actif 100 / 96 40% 1 02.09.2026 -
Hugo Gaona Sportivo Luqueno Actif 73 / 81 40% 1 02.09.2026 -
Santiago Godoy 12 de Octubre Actif 93 / 95 40% 1 01.09.2026 -
Gustavo Rodriguez Valledupar Actif 114 / 105 40% 1 30.08.2026 -
Gaizka Gómez Wanderers Actif 79 / 90 40% 1 29.08.2026 -
Jonathan Vega Dorados Actif 86 / 117 40% 1 29.08.2026 -
Diego Rossi Monterrey Actif 118 / 113 40% 2 28.08.2026 -
Duván Mósquera Aguilas Doradas Actif 109 / 117 40% 1 27.08.2026 -
Santiago Fernández Talleres Actif 101 / 110 40% 1 27.08.2026 -
Dalessandro Montenegro Alianza Lima Actif 113 / 99 40% 1 25.08.2026 -
Rodrigo Cabrera River Plate Actif 104 / 107 40% 1 25.08.2026 -
Róyner Benítez Aguilas Doradas Actif 95 / 106 40% 1 25.08.2026 -
Kevin Lezcano Guarani Actif 66 / 82 40% 1 24.08.2026 -
Dylan Lozano Aguilas Doradas Actif 100 / 111 40% 1 24.08.2026 -
Santiago Costa Albion Actif 95 / 112 40% 1 24.08.2026 -
Fabián Ángel Junior Actif 121 / 114 40% 1 23.08.2026 -
Hebert Vergara Liverpool Montevideo Actif 96 / 101 40% 1 22.08.2026 -
Kavier Ortiz Metropolitanos Actif 83 / 97 40% 1 18.08.2026 -
Santiago Guzmán Wanderers Actif 98 / 97 40% 1 18.08.2026 -
Lukas González Cerro Largo Actif 100 / 80 40% 1 18.08.2026 -
Jairo Amaro Cerro Actif 110 / 102 40% 1 16.08.2026 -
Tiago Simoni Cerrito Actif 108 / 98 40% 1 16.08.2026 -
Emiliano Mozzone Deportivo Maldonado Actif 94 / 107 40% 1 15.08.2026 -
Álex Perdomo Defensor Sporting Actif 105 / 109 40% 1 15.08.2026 -
Eduardo Fereira Caracas Actif 107 / 110 40% 1 14.08.2026 -
Lucas Arzamendia Atenas Actif 91 / 111 40% 1 14.08.2026 -
Mathías Bordón Sol de America Actif 89 / 77 40% 1 12.08.2026 -
Fernando Álvarez Deportivo Cali Actif 105 / 100 40% 1 09.08.2026 -
Juan Camilo Mosquera Atletico Bucaramanga Actif 119 / 122 40% 1 09.08.2026 -
Yesid Díaz Fortaleza CEIF Actif 107 / 119 40% 1 08.08.2026 -
Eduardo Zapata Envigado Actif 103 / 89 40% 1 07.08.2026 -
Juan Camilo Loaiza Llaneros Actif 102 / 116 40% 1 05.08.2026 -
Nahuel Gómez Oriental Actif 93 / 98 40% 1 05.08.2026 -
Fernando Tapia Club America Actif 129 / 138 40% 1 03.08.2026 -
Francisco Galván Deportivo Municipal Actif 115 / 106 40% 1 02.08.2026 -
Álvaro Angulo Pumas UNAM Actif 120 / 126 40% 1 01.08.2026 -
Yeferson Moreno Barranquilla Actif 92 / 115 40% 1 01.08.2026 -
Facundo Batista Penarol Actif 133 / 132 40% 1 01.08.2026 -
Lucas Acosta Liverpool Montevideo Actif 122 / 106 40% 1 01.08.2026 -